Вернуться в каталог

AO-95

АктивенЛюбительское радиоSSO
NORAD 43770·PAYLOAD·🇺🇸 United States

Запущен Dec 3, 2018 с Vandenberg Space Force Base

Loading…

Ближайшие Пролёты (ближайшие 24 часа)

TLE

СвежийSource: AMSAT

Эпоха: Sep 14, 2026, 14:57 UTC

1 43770U 18099N   26257.62311903  .00008878  00000-0  32330-3 0  9990
2 43770  97.4286 317.6039 0009013  41.0365 319.1551 15.28407823426872

Отслеживайте AO-95 в реальном времени с AllMySat

Download on the App Store